Location: Izdebno
(52.6670°N, 16.2170°E)
Time: 07:38:25
(UTC+02:00)

Vanguard 1 - Pass Details

Date: 23 February 2024
Orbit: 653 x 3825 km, 34.2° (Epoch: 22 April)

Event Time Altitude Azimuth Distance (km) Brightness Sun altitude
Rises 17:29:46 0° 176° (S) 5,369 14.0 -2.0°
Reaches altitude 10° 17:35:28 10° 155° (SSE) 5,008 13.6 -2.9°
Maximum altitude 17:42:26 15° 127° (SE) 5,278 13.4 -3.9°
Drops below altitude 10° 17:50:53 10° 100° (E) 6,322 13.6 -5.2°
Enters shadow 17:55:27 - 90° (E) 7,035 13.7 -5.8°
